Latest Coastal Weather Observations for Horn Island

IDQ60701

Issued at 6:32 am EST Monday 27 May 2024 (issued every 10 minutes, with the page automatically refreshed every 10 minutes)

About coastal observations | Map of coastal stations | Coastal observations for QLD | Marine services | Other Formats
Station Details ID: 027058 Name: HORN ISLAND Lat: -10.58 Lon: 142.29 Height: 4.0 m
Data from the previous 72 hours. | See also: Recent months at Horn Island
Date/Time
EST
Wind Sea
Height
m
Swell Vis
km
Cloud Weather Temp
°C
Press
MSL
hPa
Rain since
9am
mm
Dir  Spd
kts
Gust
kts
Height
m
Period
s
Dir
27/06:00am SE 13 19 - - - - 10 Cloudy - 25.9 1011.8 0.0
27/05:30am SE 13 18 - - - - 10 Partly cloudy - 25.9 1011.5 0.0
27/05:00am SE 13 19 - - - - 10 Partly cloudy - 26.1 1011.5 0.0
27/04:30am SE 13 19 - - - - 10 - - 26.1 1011.3 0.0
27/04:00am SSE 13 19 - - - - 10 Partly cloudy - 26.1 1011.3 0.0
27/03:30am SE 14 20 - - - - 10 Partly cloudy - 26.2 1011.5 0.0
27/03:00am SE 14 20 - - - - 10 Partly cloudy - 26.4 1011.6 0.0
27/02:30am SE 16 23 - - - - 10 Partly cloudy - 26.3 1011.4 0.0
27/02:00am SE 16 25 - - - - 10 Partly cloudy - 26.3 1011.4 0.0
27/01:30am SE 15 23 - - - - 10 Partly cloudy - 26.3 1011.8 0.0
27/01:00am SE 15 23 - - - - 10 Partly cloudy - 26.2 1012.0 0.0
27/12:50am SE 16 26 - - - - 10 Partly cloudy - 26.4 1012.1 0.0
27/12:30am SE 16 23 - - - - 10 Partly cloudy - 26.4 1012.1 0.0
27/12:00am SE 15 21 - - - - 10 Cloudy - 26.6 1012.5 0.0
 
Date/Time
EST
Wind Sea
Height
m
Swell Vis
km
Cloud Weather Temp
°C
Press
MSL
hPa
Rain since
9am
mm
Dir  Spd
kts
Gust
kts
Height
m
Period
s
Dir
26/11:47pm SE 15 27 - - - - 10 Partly cloudy - 26.7 1012.6 0.0
26/11:30pm SE 15 20 - - - - 10 Partly cloudy - 26.6 1012.6 0.0
26/11:02pm SE 15 25 - - - - 10 Partly cloudy - 26.6 1012.9 0.0
26/11:00pm SE 15 22 - - - - 10 Partly cloudy - 26.5 1012.9 0.0
26/10:30pm SE 15 22 - - - - 10 - - 26.4 1012.8 0.0
26/10:02pm SE 15 25 - - - - 10 Partly cloudy - 26.5 1012.8 0.0
26/10:00pm SE 14 25 - - - - 10 Partly cloudy - 26.5 1012.8 0.0
26/09:32pm SE 15 28 - - - - 10 - - 26.5 1012.6 0.0
26/09:30pm SE 15 23 - - - - 10 - - 26.5 1012.5 0.0
26/09:01pm SE 15 25 - - - - 10 Partly cloudy - 26.6 1012.4 0.0
26/09:00pm SE 14 20 - - - - 10 Partly cloudy - 26.4 1012.4 0.0
26/08:30pm SE 15 25 - - - - 10 Partly cloudy - 26.4 1012.3 0.0
26/08:23pm SE 15 25 - - - - 10 Partly cloudy - 26.6 1012.3 0.0
26/08:00pm SE 15 23 - - - - 10 Partly cloudy - 26.6 1012.0 0.0
26/07:30pm SE 17 23 - - - - 10 Partly cloudy - 26.7 1011.8 0.0
26/07:07pm SE 17 27 - - - - 10 Partly cloudy - 26.6 1011.6 0.0
26/07:00pm SE 18 26 - - - - 10 Partly cloudy - 26.7 1011.6 0.0
26/06:30pm SE 17 26 - - - - 10 Partly cloudy - 26.8 1011.2 0.0
26/06:00pm SE 15 23 - - - - 10 Mostly cloudy - 26.9 1010.9 0.0
26/05:43pm SE 15 25 - - - - 10 - - 27.0 1010.6 0.0
26/05:30pm SE 16 24 - - - - 10 Partly cloudy - 27.2 1010.6 0.0
26/05:03pm SE 16 26 - - - - 10 Partly cloudy - 27.5 1010.4 0.0
26/05:00pm SE 18 26 - - - - 10 Partly cloudy - 27.5 1010.4 0.0
26/04:35pm SE 17 27 - - - - 10 Partly cloudy - 27.7 1010.2 0.0
26/04:30pm SE 18 27 - - - - 10 Partly cloudy - 27.8 1010.1 0.0
26/04:05pm SE 16 26 - - - - 10 Partly cloudy - 27.9 1010.2 0.0
26/04:00pm SE 17 26 - - - - 10 Partly cloudy - 27.8 1010.2 0.0
26/03:30pm SE 19 29 - - - - 10 - - 27.8 1010.3 0.0
26/03:27pm SE 19 29 - - - - 10 - - 27.9 1010.4 0.0
26/03:00pm SE 16 23 - - - - 10 Mostly cloudy Rain 27.9 1010.7 0.0
26/02:40pm SE 19 29 - - - - 6 Partly cloudy - 26.2 1010.9 0.0
26/02:30pm ESE 20 25 - - - - 10 Partly cloudy - 27.2 1011.0 0.0
26/02:00pm SE 19 25 - - - - 10 Partly cloudy - 28.1 1011.3 0.0
26/01:30pm SE 17 27 - - - - 10 Partly cloudy - 28.7 1011.5 0.0
26/01:21pm SE 17 27 - - - - 10 Partly cloudy - 29.2 1011.5 0.0
26/01:00pm SE 14 23 - - - - 9 Partly cloudy - 27.2 1011.9 0.0
26/12:30pm SE 14 23 - - - - 10 Partly cloudy - 26.8 1012.4 0.0
26/12:00pm SE 16 22 - - - - 10 Cloudy - 28.0 1012.6 0.0
26/11:30am SE 18 25 - - - - 10 Partly cloudy - 28.0 1012.9 0.0
26/11:00am SE 17 24 - - - - 10 Partly cloudy - 28.6 1012.9 0.0
26/10:30am SE 16 24 - - - - 10 Partly cloudy - 28.2 1013.0 0.0
26/10:18am SE 17 27 - - - - 10 Partly cloudy - 28.2 1013.0 0.0
26/10:00am SE 16 23 - - - - 10 Partly cloudy - 28.0 1013.0 0.0
26/09:30am SE 16 24 - - - - 10 Partly cloudy - 27.8 1013.0 0.0
26/09:18am SE 15 27 - - - - 10 Partly cloudy - 27.4 1012.9 0.0
26/09:00am SE 15 23 - - - - 10 Cloudy - 27.4 1012.8 0.8
26/08:30am SE 17 24 - - - - 10 Partly cloudy - 27.4 1012.5 0.8
26/08:00am SE 15 22 - - - - 10 Partly cloudy - 26.9 1012.0 0.8
26/07:30am SE 16 25 - - - - 10 Partly cloudy - 26.6 1011.8 0.8
26/07:00am SE 16 23 - - - - 10 Partly cloudy - 26.5 1011.7 0.8
26/06:36am SE 15 25 - - - - 10 Partly cloudy - 26.4 1011.5 0.8
26/06:30am SE 16 25 - - - - 10 Partly cloudy - 26.4 1011.4 0.8
26/06:00am SE 16 24 - - - - 10 Cloudy - 26.1 1011.1 0.8
26/05:30am SE 13 20 - - - - 10 Partly cloudy - 26.3 1010.9 0.8
26/05:00am SE 14 20 - - - - 10 Partly cloudy - 26.1 1010.9 0.8
26/04:30am SE 14 21 - - - - 10 Partly cloudy - 26.0 1011.0 0.8
26/04:00am SE 15 22 - - - - 10 Partly cloudy - 25.9 1010.9 0.8
26/03:42am SE 15 28 - - - - 10 Partly cloudy - 26.3 1010.9 0.8
26/03:30am SE 14 21 - - - - 10 Partly cloudy - 26.4 1010.8 0.8
26/03:00am SE 13 18 - - - - 10 Cloudy - 26.1 1011.1 0.8
26/02:30am SE 13 20 - - - - 10 Partly cloudy - 25.9 1011.1 0.8
26/02:00am SE 15 21 - - - - 10 Partly cloudy - 25.8 1011.3 0.8
26/01:58am SE 15 21 - - - - 10 Partly cloudy - 25.7 1011.4 0.8
26/01:30am SE 17 24 - - - - 10 Partly cloudy - 25.4 1011.6 0.8
26/01:24am SE 16 24 - - - - 10 Partly cloudy - 25.4 1011.8 0.8
26/01:00am SSE 13 20 - - - - 4 Cloudy - 25.4 1012.2 0.6
26/12:57am SSE 13 20 - - - - 5 Cloudy - 25.5 1012.2 0.6
26/12:30am SE 12 18 - - - - 10 Partly cloudy - 25.7 1012.2 0.6
26/12:06am SE 12 17 - - - - 10 Partly cloudy - 25.2 1012.3 0.6
26/12:00am SE 13 16 - - - - 10 Cloudy Showers 25.2 1012.4 0.6
 
Date/Time
EST
Wind Sea
Height
m
Swell Vis
km
Cloud Weather Temp
°C
Press
MSL
hPa
Rain since
9am
mm
Dir  Spd
kts
Gust
kts
Height
m
Period
s
Dir
25/11:49pm SE 15 25 - - - - 2 Partly cloudy - 25.2 1012.6 0.6
25/11:45pm SE 16 25 - - - - 4 Partly cloudy - 25.5 1012.6 0.6
25/11:44pm SE 16 24 - - - - 5 Partly cloudy - 25.5 1012.5 0.4
25/11:30pm SSE 12 16 - - - - 10 Cloudy - 25.8 1012.6 0.4
25/11:11pm SE 13 18 - - - - 10 Partly cloudy - 25.7 1012.8 0.4
25/11:00pm SE 14 21 - - - - 10 Partly cloudy - 25.8 1012.8 0.4
25/10:38pm SE 15 25 - - - - 10 Partly cloudy - 25.6 1012.8 0.4
25/10:30pm SE 15 21 - - - - 10 Partly cloudy - 25.7 1012.9 0.4
25/10:00pm SSE 12 17 - - - - 10 Cloudy - 25.6 1012.9 0.4
25/09:41pm SE 11 17 - - - - 10 Partly cloudy - 25.3 1012.9 0.4
25/09:30pm SE 12 18 - - - - 5 Partly cloudy - 25.3 1012.8 0.4
25/09:19pm SE 16 23 - - - - 5 Partly cloudy - 25.6 1012.7 0.4
25/09:00pm SE 12 20 - - - - 10 Cloudy Recent precip. 25.8 1012.4 0.2
25/08:30pm SE 13 21 - - - - 10 Partly cloudy - 25.7 1012.1 0.2
25/08:24pm SE 11 21 - - - - 10 Partly cloudy - 25.7 1012.1 0.2
25/08:03pm SE 13 20 - - - - 5 Partly cloudy - 26.0 1011.9 0.2
25/08:00pm SE 13 17 - - - - 10 Cloudy - 26.6 1011.8 0.0
25/07:30pm SE 14 22 - - - - 10 Partly cloudy - 26.6 1011.3 0.0
25/07:26pm SE 14 20 - - - - 10 Partly cloudy - 26.6 1011.1 0.0
25/07:00pm SE 14 22 - - - - 10 Partly cloudy - 26.7 1010.9 0.0
25/06:30pm SE 13 22 - - - - 10 Partly cloudy - 27.1 1010.7 0.0
25/06:00pm SE 14 20 - - - - 10 Cloudy - 27.1 1010.4 0.0
25/05:30pm SE 16 23 - - - - 10 Partly cloudy - 27.4 1010.3 0.0
25/05:04pm SE 15 25 - - - - 10 Partly cloudy - 27.8 1010.0 0.0
25/05:00pm SE 15 24 - - - - 10 Partly cloudy - 28.0 1010.0 0.0
25/04:30pm SE 18 24 - - - - 10 Partly cloudy - 27.5 1010.1 0.0
25/04:00pm SE 18 26 - - - - 10 Partly cloudy - 28.5 1010.0 0.0
25/03:30pm SE 16 22 - - - - 10 Partly cloudy - 29.3 1010.0 0.0
25/03:00pm SE 17 26 - - - - 10 Cloudy - 28.5 1010.3 0.0
25/02:41pm SE 16 26 - - - - 10 Partly cloudy - 29.4 1010.5 0.0
25/02:30pm SE 18 25 - - - - 10 Partly cloudy - 29.6 1010.6 0.0
25/02:00pm SE 19 26 - - - - 10 Partly cloudy - 29.2 1011.0 0.0
25/01:30pm SE 16 22 - - - - 10 Partly cloudy - 30.5 1011.4 0.0
25/01:00pm SE 19 26 - - - - 10 Partly cloudy - 29.6 1011.8 0.0
25/12:30pm SE 18 25 - - - - 10 Cloudy - 29.5 1012.2 0.0
25/12:00pm SE 19 26 - - - - 10 Partly cloudy - 29.5 1012.5 0.0
25/11:30am SE 19 26 - - - - 10 Partly cloudy - 29.5 1012.8 0.0
25/11:00am SE 19 27 - - - - 10 Partly cloudy - 29.0 1013.0 0.0
25/10:30am SE 19 26 - - - - 10 Partly cloudy - 28.8 1013.3 0.0
25/10:00am SE 16 23 - - - - 10 Partly cloudy - 28.2 1013.2 0.0
25/09:56am SE 17 23 - - - - 10 Partly cloudy - 28.2 1013.2 0.0
25/09:45am SE 18 24 - - - - 10 Partly cloudy - 27.9 1013.1 0.0
25/09:30am SE 19 26 - - - - 10 Partly cloudy - 27.4 1013.0 0.0
25/09:00am SE 17 23 - - - - 10 Cloudy - 27.6 1013.0 0.0
25/08:30am SE 16 23 - - - - 10 Partly cloudy - 27.5 1012.5 0.0
25/08:00am SE 13 20 - - - - 10 Partly cloudy - 26.9 1012.2 0.0
25/07:30am SE 14 21 - - - - 10 Partly cloudy - 26.6 1011.9 0.0
25/07:28am SE 14 21 - - - - 10 Partly cloudy - 26.6 1011.9 0.0
25/07:03am SE 15 24 - - - - 10 Cloudy - 26.2 1011.8 0.0
25/07:00am SE 14 22 - - - - 10 Cloudy - 26.4 1011.8 0.0
25/06:30am SE 13 20 - - - - 10 Cloudy - 26.4 1011.4 0.0
25/06:00am SE 15 22 - - - - 10 Cloudy - 26.2 1011.3 0.0
25/05:30am SE 13 18 - - - - 10 Cloudy - 26.4 1010.9 0.0
25/05:00am SE 15 21 - - - - 10 Cloudy - 26.3 1011.0 0.0
25/04:58am SE 16 23 - - - - 10 Cloudy - 26.3 1011.0 0.0
25/04:30am SE 15 21 - - - - 10 Partly cloudy - 26.3 1010.9 0.0
25/04:18am SE 15 21 - - - - 10 Partly cloudy - 26.3 1010.9 0.0
25/04:00am SE 15 22 - - - - 10 Partly cloudy - 26.2 1010.8 0.0
25/03:46am SE 16 26 - - - - 10 Cloudy - 26.4 1010.8 0.0
25/03:30am SE 16 23 - - - - 10 Partly cloudy - 26.3 1010.8 0.0
25/03:07am SE 15 25 - - - - 10 Partly cloudy - 26.3 1010.9 0.0
25/03:00am SE 17 23 - - - - 10 Mostly cloudy - 26.4 1011.0 0.0
25/02:39am SE 15 25 - - - - 10 Partly cloudy - 26.5 1011.1 0.0
25/02:30am SE 15 21 - - - - 10 Partly cloudy - 26.4 1011.1 0.0
25/02:23am SE 16 22 - - - - 10 Partly cloudy - 26.4 1011.1 0.0
25/02:00am SE 17 22 - - - - 10 Partly cloudy - 26.2 1011.4 0.0
25/01:30am SE 14 22 - - - - 10 Partly cloudy - 26.3 1011.8 0.0
25/01:11am SE 15 24 - - - - 10 Partly cloudy - 26.2 1012.0 0.0
25/01:00am SE 15 28 - - - - 10 Partly cloudy - 26.2 1012.1 0.0
25/12:52am SE 17 28 - - - - 10 Partly cloudy - 26.4 1012.2 0.0
25/12:46am SE 16 22 - - - - 10 Partly cloudy - 26.3 1012.2 0.0
25/12:30am SE 14 21 - - - - 10 Partly cloudy - 26.2 1012.3 0.0
25/12:00am SE 14 23 - - - - 10 Cloudy - 26.1 1012.4 0.0
 
Date/Time
EST
Wind Sea
Height
m
Swell Vis
km
Cloud Weather Temp
°C
Press
MSL
hPa
Rain since
9am
mm
Dir  Spd
kts
Gust
kts
Height
m
Period
s
Dir
24/11:30pm SE 15 21 - - - - 10 Cloudy - 26.0 1012.5 0.0
24/11:29pm SE 15 21 - - - - 10 Cloudy - 26.0 1012.5 0.0
24/11:12pm SE 13 20 - - - - 5 Cloudy - 25.7 1012.4 0.0
24/11:00pm SE 13 19 - - - - 10 Partly cloudy - 25.7 1012.5 0.0
24/10:51pm SE 13 19 - - - - 10 Partly cloudy - 25.8 1012.6 0.0
24/10:36pm SSE 14 19 - - - - 5 Partly cloudy - 25.7 1012.5 0.0
24/10:30pm SE 13 19 - - - - 10 Partly cloudy - 26.3 1012.5 0.0
24/10:25pm SE 14 21 - - - - 10 Partly cloudy - 26.3 1012.5 0.0
24/10:23pm SE 14 21 - - - - 10 Partly cloudy - 26.3 1012.5 0.0
24/10:00pm SE 16 25 - - - - 10 Partly cloudy - 26.0 1012.4 0.0
24/09:30pm SE 14 21 - - - - 10 Partly cloudy - 26.4 1012.0 0.0
24/09:01pm SE 15 26 - - - - 10 Cloudy - 26.5 1012.0 0.0
24/09:00pm SE 14 20 - - - - 10 Cloudy - 26.6 1011.9 0.0
24/08:30pm SE 15 23 - - - - 10 Partly cloudy - 26.6 1011.5 0.0
24/08:17pm SE 13 19 - - - - 10 Partly cloudy - 26.4 1011.4 0.0
24/08:00pm SE 14 20 - - - - 10 Partly cloudy - 26.4 1011.2 0.0
24/07:36pm SE 14 23 - - - - 10 Partly cloudy - 26.3 1011.0 0.0
24/07:30pm SE 15 22 - - - - 10 Partly cloudy - 26.3 1010.9 0.0
24/07:16pm SE 14 21 - - - - 10 Partly cloudy - 26.5 1010.6 0.0
24/07:00pm SE 15 23 - - - - 10 Partly cloudy - 26.6 1010.5 0.0
24/06:30pm SE 15 23 - - - - 10 Partly cloudy - 26.6 1010.4 0.0
24/06:00pm SE 16 23 - - - - 10 Cloudy - 26.8 1010.1 0.0
24/05:40pm SE 15 19 - - - - 10 Partly cloudy - 26.8 1009.8 0.0
24/05:30pm SE 15 22 - - - - 10 Partly cloudy - 26.8 1009.8 0.0
24/05:00pm ESE 16 23 - - - - 10 Partly cloudy - 28.2 1009.3 0.0
24/04:30pm SE 16 23 - - - - 10 Partly cloudy - 28.2 1009.4 0.0
24/04:00pm SE 16 24 - - - - 10 Partly cloudy - 28.2 1009.3 0.0
24/03:30pm SE 17 25 - - - - 10 Partly cloudy - 28.6 1009.2 0.0
24/03:00pm SE 17 24 - - - - 10 Mostly cloudy - 29.3 1009.4 0.0
24/02:37pm SE 17 27 - - - - 10 Partly cloudy - 29.4 1009.6 0.0
24/02:30pm SE 19 27 - - - - 10 Partly cloudy - 29.2 1009.5 0.0
24/02:00pm SE 16 24 - - - - 10 Partly cloudy - 29.1 1009.8 0.0
24/01:30pm SE 20 26 - - - - 10 Partly cloudy - 28.9 1010.1 0.0
24/01:19pm SE 18 29 - - - - 10 Partly cloudy - 29.0 1010.3 0.0
24/01:00pm ESE 19 27 - - - - 10 Partly cloudy - 29.3 1010.4 0.0
24/12:30pm ESE 19 27 - - - - 10 Partly cloudy - 29.2 1010.8 0.0
24/12:20pm SE 17 27 - - - - 10 Partly cloudy - 29.3 1011.1 0.0
24/12:00pm ESE 18 25 - - - - 10 Cloudy - 29.1 1011.3 0.0
24/11:30am ESE 21 26 - - - - 10 Partly cloudy - 29.1 1011.5 0.0
24/11:00am SE 18 26 - - - - 10 Partly cloudy - 28.8 1011.7 0.0
24/10:41am SE 18 25 - - - - 10 Partly cloudy - 28.5 1012.0 0.0
24/10:30am SE 16 22 - - - - 10 Partly cloudy - 27.9 1012.2 0.0
24/10:00am SE 16 23 - - - - 10 Partly cloudy - 27.3 1012.4 0.0
24/09:47am SE 15 21 - - - - 10 Partly cloudy - 27.6 1012.4 0.0
24/09:30am SE 13 22 - - - - 10 Partly cloudy - 26.7 1012.4 0.0
24/09:00am SSE 12 18 - - - - 10 Cloudy - 26.7 1012.1 1.0
24/08:30am SSE 10 15 - - - - 10 Partly cloudy - 26.0 1012.0 1.0
24/08:00am SSE 11 17 - - - - 10 Partly cloudy - 25.8 1011.9 1.0
24/07:30am SE 11 16 - - - - 10 Partly cloudy - 25.9 1011.5 1.0
24/07:14am SSE 10 15 - - - - 10 Partly cloudy - 25.6 1011.3 1.0
24/07:00am SSE 10 15 - - - - 10 Partly cloudy - 25.4 1011.3 1.0

Other formats

Comma delimited format used in spreadsheet applications
http://www.bom.gov.au/fwo/IDQ60701/IDQ60701.94174.axf

JavaScript Object Notation format (JSON) in row-major order
http://www.bom.gov.au/fwo/IDQ60701/IDQ60701.94174.json

Data quality

Most of these data are generated automatically and are frequently updated. Quality checks on data are not normally performed. It is possible for incorrect values to appear. Refer to information at About Latest Weather Observations and please check the disclaimer before using these data.